[[{"header":{"parameterUnit":"m.s-1","parameterCategory":2,"la1":30.2991,"la2":30.254,"lo1":-89.0895,"lo2":-89.0444,"dy":0.0017,"dx":0.0017,"nx":28,"ny":28,"refTime":"2024-08-13T21:00:00:Z","depth":"0","parameterNumber":2,"parameterNumberName":"U-component_of_CURRENTS"},"data":[0,0,0,0,0,0,0,0,0,0,0,0,0,0,0,0,0,0,0,0,0,0,0,0,0,0,0,0,0,0,0,0,0,0,0,0,0,0,0,0,0,0,0,0,0,0,0,0,0,0,0,0,0,0,0,0,0,0,0.4232,0.4232,0,0.4285,0.4286,0.4286,0.4302,0.4302,0.4302,0.4302,0.4327,0.4328,0.4329,0,0,0,0,0,0,0,0,0,0,0,0,0,0.4035,0.4039,0.4232,0.4232,0.4233,0.4285,0.4286,0.4286,0.4302,0.4302,0.4302,0.4301,0.4327,0.4328,0.4329,0,0,0,0,0,0,0,0,0,0,0,0,0,0.4107,0.404,0.4232,0.4248,0.425,0.4285,0.4286,0.4286,0.4302,0.4302,0.4302,0.4301,0.4326,0.4328,0.4329,0.4345,0,0,0.4333,0.4334,0,0,0,0,0,0,0,0,0.4103,0.4115,0.4245,0.4247,0.4249,0.4287,0.4225,0.4305,0.4303,0.4282,0.4302,0.4301,0.4311,0.4314,0.4325,0.4346,0.4347,0.4333,0.4334,0.4335,0.4335,0,0,0,0,0,0,0,0.4098,0.4112,0.4253,0.4245,0.4248,0.4214,0.4225,0.424,0.4297,0.4284,0.4285,0.4292,0.4312,0.4324,0.4325,0.4347,0.4333,0.4334,0.4335,0.4336,0.4362,0.4362,0,0,0,0,0,0,0.4099,0.4108,0.4251,0.4254,0.4174,0.4219,0.4231,0.4275,0.4298,0.4301,0.4292,0.4292,0.4321,0.4324,0.4326,0.4363,0.4335,0.4336,0.4337,0.4362,0.4362,0.4362,0,0,0,0,0,0,0.4096,0.4113,0.4249,0.4179,0.4194,0.4223,0.4272,0.4276,0.4285,0.4304,0.4307,0.4296,0.4321,0.4324,0.4348,0.4363,0.4336,0.4338,0.4362,0.4362,0.4362,0.4426,0,0,0,0,0,0,0.409,0.4113,0.4145,0.4181,0.4199,0.4265,0.4272,0.4277,0.4289,0.429,0.4309,0.4311,0.4321,0.4346,0.4349,0.4365,0.4339,0.4362,0.4362,0.4362,0.4424,0.4428,0.4431,0,0,0,0,0,0.4084,0.4117,0.4147,0.4164,0.4244,0.4265,0.427,0.4287,0.429,0.4293,0.4315,0.431,0.4346,0.4348,0.4352,0.4368,0.4362,0.4362,0.4362,0.4422,0.4427,0.4431,0,0,0,0,0,0,0.4056,0.4123,0.4157,0.4215,0.424,0.4267,0.4281,0.4286,0.4306,0.4317,0.4323,0.4328,0.4351,0.4343,0.4345,0.4369,0.4347,0.4348,0.4392,0.4396,0.44,0.4454,0.434,0,0,0,0,0,0.4068,0.4104,0.4162,0.4203,0.4228,0.4256,0.4267,0.4282,0.4304,0.4313,0.4323,0.4336,0.4353,0.4362,0.4373,0.4394,0.4441,0.4398,0.4402,0.4406,0.4449,0.4518,0.4534,0.4361,0.4361,0.4361,0,0,0.4062,0.4107,0.4127,0.4197,0.4229,0.428,0.4262,0.429,0.4324,0.4313,0.4357,0.4353,0.436,0.4389,0.4396,0.4386,0.4479,0.4405,0.4409,0.4451,0.452,0.4538,0.4554,0.436,0.4361,0.4361,0,0,0.4079,0.4125,0.4175,0.4206,0.4262,0.4282,0.4289,0.4326,0.4338,0.4374,0.4377,0.4392,0.4405,0.4427,0.4437,0.4465,0.4496,0.4441,0.4513,0.4579,0.4595,0.461,0.4704,0.4727,0.4444,0.4444,0.4444,0,0.4092,0.4162,0.4182,0.4248,0.4273,0.4288,0.4342,0.4366,0.4397,0.4413,0.4394,0.4439,0.4436,0.4492,0.4505,0.448,0.4532,0.45,0.459,0.4605,0.462,0.4712,0.4737,0.4447,0.4446,0.4446,0.4446,0,0.4154,0.4214,0.4239,0.4337,0.4358,0.4394,0.4438,0.4459,0.4464,0.4486,0.4524,0.4529,0.4557,0.4542,0.4544,0.4628,0.4639,0.459,0.4592,0.4643,0.4735,0.476,0.4451,0.445,0.4449,0.4448,0,0,0.4194,0.4274,0.4287,0.4332,0.4404,0.4426,0.4486,0.4537,0.4575,0.4598,0.4648,0.4677,0.4673,0.4685,0.4671,0.4731,0.4873,0.4717,0.4719,0.4836,0.506,0.4987,0.5007,0.4843,0.4848,0.4851,0.509,0,0.4252,0.4357,0.4375,0.4457,0.4516,0.4533,0.4577,0.462,0.4641,0.469,0.4712,0.475,0.4728,0.4738,0.4804,0.485,0.494,0.4816,0.4972,0.4979,0.4928,0.5033,0.4759,0.4941,0.5114,0.5118,0.5121,0,0.4334,0.438,0.4467,0.4518,0.4544,0.4583,0.4637,0.4679,0.4751,0.4766,0.4823,0.484,0.4945,0.4894,0.507,0.4996,0.5059,0.5094,0.5103,0.5039,0.4952,0.4912,0.498,0.4855,0.5159,0.5156,0.5154,0,0.4358,0.4447,0.4499,0.4525,0.4593,0.4616,0.4642,0.4703,0.4741,0.4824,0.4866,0.4968,0.503,0.5129,0.5223,0.5161,0.5421,0.5325,0.5335,0.5331,0.5133,0.5104,0.5119,0.5479,0.5479,0.5478,0.5477,0,0.4424,0.4468,0.4508,0.4546,0.4598,0.4626,0.4681,0.4725,0.4788,0.4843,0.4908,0.4982,0.5095,0.5237,0.5301,0.5425,0.5494,0.5406,0.54,0.5144,0.5114,0.5022,0.4969,0.5487,0.5485,0.5483,0.5482,0,0.4469,0.4495,0.4566,0.4613,0.4624,0.4664,0.4709,0.474,0.4801,0.4882,0.4917,0.5053,0.5201,0.5329,0.5505,0.5521,0.5481,0.5657,0.537,0.5325,0.5139,0.5099,0.5017,0.4877,0.5692,0.5692,0.5692,0,0.452,0.4562,0.4616,0.4637,0.4659,0.4698,0.4715,0.4756,0.4782,0.4914,0.4955,0.5127,0.5212,0.5467,0.5509,0.5638,0.548,0.5476,0.5285,0.5148,0.51,0.4925,0.4799,0.5064,0.5059,0.5054,0.5051,0,0.4602,0.461,0.4638,0.4669,0.4688,0.4714,0.4735,0.4756,0.4797,0.4857,0.494,0.5021,0.5214,0.5189,0.5361,0.5403,0.5179,0.5389,0.5305,0.4685,0.4438,0.429,0.4925,0.5012,0.5016,0.5019,0.5021,0.5022,0.4642,0.466,0.4659,0.4677,0.4684,0.4667,0.4629,0.4649,0.466,0.4625,0.4813,0.4788,0.4863,0.5017,0.505,0.4923,0.4942,0.4759,0.4756,0.4621,0.4357,0.4939,0.4965,0.4968,0.4971,0.4974,0.4976,0,0.4632,0.4615,0.4656,0.4611,0.4555,0.4591,0.4568,0.4457,0.4383,0.4425,0.4422,0.4378,0.4363,0.442,0.4431,0.4321,0.4125,0.4215,0.3883,0.3817,0.4387,0.4225,0.4017,0.4017,0.4017,0.4017,0.4017,0.4017,0.4601,0.4569,0.4562,0.4446,0.4414,0.4239,0.4187,0.4067,0.4022,0.3851,0.375,0.3771,0.3971,0.4052,0.3955,0.3868,0.3612,0.343,0.3508,0.3884,0.3932,0.3978,0.3813,0.3521,0.3521,0.271,0.2704,0.2699]},{"header":{"parameterUnit":"m.s-1","parameterCategory":2,"la1":30.2991,"la2":30.254,"lo1":-89.0895,"lo2":-89.0444,"dy":0.0017,"dx":0.0017,"nx":28,"ny":28,"refTime":"2024-08-13T21:00:00:Z","depth":"0","parameterNumber":3,"parameterNumberName":"V-component_of_CURRENTS"},"data":[0,0,0,0,0,0,0,0,0,0,0,0,0,0,0,0,0,0,0,0,0,0,0,0,0,0,0,0,0,0,0,0,0,0,0,0,0,0,0,0,0,0,0,0,0,0,0,0,0,0,0,0,0,0,0,0,0,0,-0.0717,-0.0718,0,-0.0952,-0.0956,-0.096,-0.1138,-0.1138,-0.1138,-0.1138,-0.1393,-0.14,-0.1406,0,0,0,0,0,0,0,0,0,0,0,0,0,-0.0477,-0.0482,-0.0716,-0.0718,-0.0719,-0.0951,-0.0956,-0.0961,-0.1138,-0.1138,-0.1138,-0.1138,-0.1391,-0.1399,-0.1407,0,0,0,0,0,0,0,0,0,0,0,0,0,-0.0649,-0.0483,-0.0716,-0.0824,-0.0835,-0.095,-0.0956,-0.0962,-0.1138,-0.1138,-0.1138,-0.1138,-0.1388,-0.1398,-0.1408,-0.1465,0,0,-0.1439,-0.1443,0,0,0,0,0,0,0,0,-0.0639,-0.066,-0.0806,-0.0816,-0.0828,-0.1001,-0.0964,-0.1126,-0.1138,-0.104,-0.1138,-0.1139,-0.1253,-0.1274,-0.1341,-0.1477,-0.1488,-0.1439,-0.1445,-0.145,-0.1453,0,0,0,0,0,0,0,-0.0627,-0.065,-0.0826,-0.0808,-0.0821,-0.0878,-0.0904,-0.0997,-0.1155,-0.1049,-0.1058,-0.1058,-0.1262,-0.1331,-0.1348,-0.1492,-0.1439,-0.1448,-0.1454,-0.1458,-0.1678,-0.1678,0,0,0,0,0,0,-0.0563,-0.0639,-0.0818,-0.0831,-0.0714,-0.0881,-0.0911,-0.0959,-0.1154,-0.118,-0.1058,-0.1065,-0.1314,-0.1336,-0.1357,-0.1392,-0.145,-0.1459,-0.1465,-0.1678,-0.1678,-0.1678,0,0,0,0,0,0,-0.0557,-0.0578,-0.0809,-0.0724,-0.0756,-0.0882,-0.0937,-0.0963,-0.1003,-0.1158,-0.1187,-0.1063,-0.1315,-0.1343,-0.1449,-0.1404,-0.1464,-0.1473,-0.1679,-0.1678,-0.1678,-0.1488,0,0,0,0,0,0,-0.0551,-0.0577,-0.0576,-0.0722,-0.0757,-0.0834,-0.0935,-0.0967,-0.0996,-0.1009,-0.1173,-0.1199,-0.1317,-0.1433,-0.1459,-0.1419,-0.148,-0.1679,-0.1679,-0.1678,-0.1495,-0.1482,-0.147,0,0,0,0,0,-0.0542,-0.053,-0.0576,-0.0595,-0.0759,-0.083,-0.0855,-0.0957,-0.0995,-0.0998,-0.1141,-0.1193,-0.1448,-0.1443,-0.1472,-0.1434,-0.1679,-0.1679,-0.1678,-0.15,-0.1484,-0.1471,0,0,0,0,0,0,-0.0441,-0.055,-0.0603,-0.0631,-0.0702,-0.0853,-0.0863,-0.0922,-0.1041,-0.1061,-0.1212,-0.1249,-0.1328,-0.1409,-0.1398,-0.1499,-0.1563,-0.1569,-0.1417,-0.1404,-0.1392,-0.1304,-0.1489,0,0,0,0,0,-0.041,-0.0418,-0.0543,-0.0554,-0.0594,-0.0721,-0.0755,-0.0825,-0.0944,-0.0996,-0.1123,-0.1252,-0.1355,-0.1398,-0.1522,-0.1569,-0.1556,-0.156,-0.1548,-0.1536,-0.1488,-0.1463,-0.1441,-0.1677,-0.1677,-0.1677,0,0,-0.0366,-0.0423,-0.0429,-0.0526,-0.061,-0.0652,-0.0748,-0.0791,-0.0824,-0.1002,-0.1103,-0.1225,-0.1366,-0.1448,-0.1482,-0.15,-0.1455,-0.1536,-0.1525,-0.1482,-0.1459,-0.1435,-0.1414,-0.1677,-0.1677,-0.1677,0,0,-0.0274,-0.0351,-0.0332,-0.0389,-0.0471,-0.0563,-0.0553,-0.0704,-0.0771,-0.0875,-0.101,-0.1091,-0.1275,-0.1353,-0.1414,-0.1395,-0.1407,-0.1433,-0.1281,-0.1257,-0.1235,-0.1216,-0.1116,-0.109,-0.1407,-0.1406,-0.1406,0,-0.0225,-0.0241,-0.033,-0.034,-0.0369,-0.0507,-0.051,-0.0602,-0.0762,-0.0789,-0.0879,-0.1093,-0.1221,-0.1255,-0.1271,-0.1357,-0.1324,-0.132,-0.1232,-0.1213,-0.1197,-0.11,-0.1073,-0.1397,-0.1398,-0.1399,-0.14,0,-0.0139,-0.0154,-0.0151,-0.022,-0.0254,-0.028,-0.0406,-0.0459,-0.0561,-0.0647,-0.0725,-0.0912,-0.1005,-0.1067,-0.1177,-0.1118,-0.1122,-0.1227,-0.1247,-0.116,-0.1066,-0.104,-0.1384,-0.1387,-0.139,-0.1392,0,0,-0.0069,-0.0087,-0.0093,-0.0101,-0.0199,-0.0231,-0.0261,-0.0328,-0.0319,-0.048,-0.0455,-0.0657,-0.0718,-0.0788,-0.091,-0.0904,-0.0774,-0.0996,-0.0999,-0.0853,-0.0641,-0.0608,-0.0578,-0.086,-0.0856,-0.0853,-0.06,0,0.0,0.0029,0.0008,0.002,-0.0005,-0.0091,-0.01,-0.016,-0.0242,-0.0262,-0.0387,-0.0443,-0.062,-0.0642,-0.066,-0.076,-0.0709,-0.0827,-0.0785,-0.0781,-0.0728,-0.055,-0.0618,-0.0397,-0.0576,-0.0572,-0.0569,0,0.0042,0.0066,0.0101,0.0116,0.0102,0.0108,0.0091,0.0074,0.004,-0.0004,-0.0035,-0.014,-0.0145,-0.0328,-0.0349,-0.0411,-0.0484,-0.0563,-0.0557,-0.0569,-0.0703,-0.0531,-0.0346,-0.0592,-0.0532,-0.0535,-0.0538,0,0.0063,0.0106,0.0146,0.0138,0.0142,0.0173,0.0176,0.0154,0.0172,0.0193,0.0239,0.0182,0.0192,0.0084,-0.0073,-0.0192,-0.007,-0.0264,-0.0278,-0.0275,-0.0342,-0.0352,-0.0355,-0.0235,-0.0235,-0.0236,-0.0237,0,0.0077,0.01,0.0168,0.0171,0.0249,0.0242,0.032,0.032,0.0383,0.0471,0.0393,0.0488,0.0291,0.0304,0.011,0.0064,0.0097,-0.0163,-0.019,-0.0277,-0.0283,-0.0516,-0.0662,-0.0226,-0.0229,-0.023,-0.0232,0,0.0035,0.0078,0.0125,0.0204,0.0241,0.0285,0.0401,0.0474,0.054,0.0678,0.0716,0.0777,0.0824,0.0656,0.0548,0.0349,0.0137,0.0211,0.0174,0.0137,-0.0172,-0.0305,-0.0255,-0.0339,0.025,0.0253,0.0255,0,-0.0003,0.0022,0.014,0.0204,0.0241,0.0336,0.0422,0.0515,0.0627,0.0859,0.0964,0.1091,0.1202,0.1135,0.0819,0.0626,0.0317,0.0406,0.0124,-0.01,-0.027,-0.0388,-0.0475,0.0133,0.0134,0.0134,0.0135,0,-0.0053,-0.0001,0.007,0.0209,0.0315,0.0447,0.0599,0.0724,0.0893,0.1091,0.1403,0.1542,0.1484,0.1314,0.1036,0.081,0.0223,0.0417,0.0168,-0.0325,-0.0435,-0.0561,-0.0077,0.0142,0.0142,0.0141,0.0141,0.014,-0.0071,-0.002,0.0108,0.0238,0.0379,0.0587,0.0755,0.0972,0.1249,0.1603,0.1707,0.198,0.1635,0.1266,0.097,0.0329,0.031,0.0022,-0.0093,-0.0169,-0.0338,0.0228,0.0396,0.0397,0.0398,0.0398,0.0399,0,-0.0055,0.0031,0.0139,0.0343,0.0534,0.0609,0.0908,0.1134,0.1536,0.1824,0.2126,0.2107,0.1662,0.1137,0.0316,-0.0139,-0.0364,-0.0402,-0.066,-0.0708,-0.022,-0.0325,-0.0285,-0.0285,-0.0285,-0.0284,-0.0284,-0.0284,-0.0029,0.0095,0.0165,0.0465,0.0634,0.096,0.1177,0.1498,0.177,0.2188,0.2364,0.2465,0.2053,0.0572,-0.0471,-0.0714,-0.1046,-0.1096,-0.12,-0.1001,-0.0975,-0.0951,-0.1086,-0.1206,-0.1208,-0.1715,-0.172,-0.1724]}],[{"header":{"parameterUnit":"m.s-1","parameterCategory":2,"la1":30.2991,"la2":30.254,"lo1":-89.0895,"lo2":-89.0444,"dy":0.0017,"dx":0.0017,"nx":28,"ny":28,"refTime":"2024-08-13T21:00:00:Z","depth":"2","parameterNumber":2,"parameterNumberName":"U-component_of_CURRENTS"},"data":[0,0,0,0,0,0,0,0,0,0,0,0,0,0,0,0,0,0,0,0,0,0,0,0,0,0,0,0,0,0,0,0,0,0,0,0,0,0,0,0,0,0,0,0,0,0,0,0,0,0,0,0,0,0,0,0,0,0,0.2777,0.2777,0,0.2869,0.2871,0.2873,0.2898,0.2896,0.2894,0.2893,0.2911,0.2913,0.2915,0,0,0,0,0,0,0,0,0,0,0,0,0,0.2689,0.2692,0.2777,0.2777,0.2777,0.2869,0.2871,0.2873,0.2898,0.2896,0.2894,0.2892,0.291,0.2912,0.2915,0,0,0,0,0,0,0,0,0,0,0,0,0,0.276,0.2692,0.2777,0.2791,0.2792,0.2868,0.2871,0.2874,0.2898,0.2896,0.2893,0.2891,0.2909,0.2912,0.2915,0.2984,0,0,0.2924,0.2926,0,0,0,0,0,0,0,0,0.2756,0.2765,0.2789,0.279,0.2791,0.2858,0.2846,0.2903,0.2899,0.2871,0.2893,0.289,0.288,0.2886,0.2927,0.2985,0.2986,0.2925,0.2927,0.2928,0.2929,0,0,0,0,0,0,0,0.2751,0.2762,0.2826,0.2789,0.279,0.2815,0.2823,0.2859,0.2897,0.2873,0.2872,0.2864,0.2882,0.2924,0.2927,0.2986,0.2925,0.2927,0.2929,0.293,0.3066,0.3068,0,0,0,0,0,0,0.2715,0.2757,0.2822,0.2827,0.2754,0.2817,0.2827,0.2849,0.2898,0.29,0.2866,0.2864,0.292,0.2923,0.2927,0.3029,0.2928,0.2931,0.2932,0.3064,0.3066,0.3068,0,0,0,0,0,0,0.2714,0.2722,0.2818,0.2782,0.2794,0.282,0.2846,0.2852,0.2926,0.2891,0.2893,0.2934,0.2918,0.2923,0.2934,0.3028,0.2932,0.2935,0.3062,0.3065,0.3067,0.322,0,0,0,0,0,0,0.2712,0.2722,0.2724,0.2781,0.2795,0.2864,0.2847,0.2855,0.2916,0.2917,0.295,0.2947,0.2917,0.293,0.2937,0.303,0.2937,0.306,0.3063,0.3066,0.3212,0.3227,0.324,0,0,0,0,0,0.2709,0.2717,0.2725,0.2731,0.2799,0.2864,0.2877,0.2893,0.2923,0.2956,0.2949,0.2948,0.2957,0.2933,0.2942,0.3038,0.3058,0.3062,0.3066,0.3206,0.3224,0.3239,0,0,0,0,0,0,0.2725,0.2721,0.273,0.2751,0.2802,0.2863,0.2901,0.2933,0.2971,0.298,0.2962,0.2958,0.3017,0.2992,0.2967,0.3081,0.3014,0.302,0.3118,0.3135,0.3148,0.3165,0.294,0,0,0,0,0,0.2719,0.2714,0.2746,0.2781,0.2811,0.288,0.2912,0.2935,0.2969,0.2991,0.2989,0.3001,0.3045,0.3054,0.3067,0.3127,0.3137,0.3193,0.3207,0.3219,0.3236,0.3317,0.3342,0.3081,0.3081,0.3081,0,0,0.2735,0.274,0.2738,0.278,0.2844,0.2893,0.29,0.2976,0.3027,0.2984,0.3046,0.3058,0.307,0.3127,0.3154,0.3115,0.3299,0.3224,0.3235,0.3245,0.3324,0.335,0.3373,0.3084,0.3084,0.3083,0,0,0.2776,0.2793,0.2799,0.2847,0.2907,0.2936,0.2968,0.3034,0.3077,0.3129,0.3125,0.3176,0.321,0.3239,0.3267,0.3369,0.3377,0.3383,0.3469,0.3549,0.3572,0.3592,0.3648,0.3672,0.3382,0.3382,0.3383,0,0.2783,0.2826,0.2824,0.2873,0.2905,0.2965,0.3017,0.3087,0.3134,0.3178,0.315,0.3259,0.3278,0.3389,0.3422,0.3412,0.3436,0.3412,0.3572,0.3592,0.361,0.3662,0.3686,0.339,0.3389,0.3389,0.3388,0,0.2856,0.2887,0.293,0.2978,0.3002,0.3085,0.3135,0.3198,0.3247,0.3293,0.3401,0.3415,0.3476,0.3513,0.351,0.3661,0.363,0.3592,0.3539,0.3647,0.3692,0.3716,0.3401,0.3399,0.3396,0.3394,0,0,0.2877,0.2946,0.2966,0.2987,0.307,0.3096,0.3203,0.3296,0.338,0.344,0.3547,0.3649,0.3668,0.3698,0.3712,0.3784,0.3957,0.3752,0.3753,0.3824,0.4127,0.3951,0.3958,0.3949,0.3953,0.3957,0.4111,0,0.2948,0.3016,0.3028,0.3103,0.3144,0.3206,0.3278,0.3362,0.3447,0.3554,0.3655,0.3754,0.374,0.3791,0.3872,0.3947,0.4022,0.3918,0.3996,0.3999,0.3844,0.3981,0.3648,0.3744,0.4133,0.4137,0.414,0,0.2985,0.3044,0.3107,0.314,0.3167,0.323,0.3342,0.3393,0.3571,0.3645,0.3774,0.3847,0.4018,0.3965,0.4157,0.4091,0.4132,0.4163,0.4168,0.3966,0.3866,0.3695,0.377,0.4177,0.4174,0.4171,0.4169,0,0.2949,0.305,0.3089,0.3128,0.3211,0.3286,0.3331,0.3461,0.3535,0.3727,0.3815,0.399,0.4091,0.42,0.4299,0.4253,0.447,0.4406,0.4277,0.4264,0.3975,0.3927,0.453,0.453,0.453,0.4529,0.4529,0,0.296,0.3006,0.3112,0.3162,0.324,0.3274,0.3386,0.3457,0.3625,0.3717,0.3859,0.3979,0.4157,0.4299,0.4364,0.4404,0.4533,0.4328,0.4308,0.4014,0.397,0.4324,0.4298,0.4535,0.4534,0.4532,0.4531,0,0.2904,0.2968,0.3021,0.3164,0.3216,0.3261,0.3422,0.3506,0.3638,0.3777,0.3856,0.405,0.4192,0.4323,0.45,0.4456,0.4533,0.4497,0.413,0.4061,0.4255,0.4235,0.4388,0.4383,0.4379,0.4376,0.4373,0,0.2874,0.2915,0.3014,0.309,0.3195,0.3312,0.3392,0.3511,0.3593,0.3803,0.3856,0.4061,0.4137,0.4305,0.43,0.4357,0.4462,0.4051,0.3889,0.4284,0.425,0.4235,0.4221,0.3584,0.3575,0.3568,0.3562,0,0.2922,0.295,0.304,0.3121,0.3228,0.3272,0.3407,0.346,0.3571,0.3683,0.3792,0.3886,0.3998,0.3887,0.3936,0.3927,0.4017,0.3895,0.4461,0.3642,0.353,0.3494,0.3507,0.3497,0.3503,0.3508,0.3512,0.3514,0.3004,0.3028,0.3118,0.3168,0.3255,0.322,0.3205,0.3319,0.3352,0.3404,0.3587,0.3574,0.3614,0.3487,0.3416,0.3363,0.3615,0.3466,0.3488,0.3519,0.3368,0.3252,0.314,0.3144,0.3148,0.3151,0.3154,0,0.3048,0.3094,0.3172,0.3153,0.3146,0.3215,0.3195,0.3101,0.3052,0.3149,0.3192,0.2942,0.286,0.2925,0.2726,0.271,0.2688,0.2611,0.2563,0.263,0.2689,0.2495,0.2037,0.2033,0.203,0.2027,0,0,0.3122,0.3154,0.3108,0.3049,0.3066,0.2938,0.2884,0.2741,0.2708,0.2592,0.2577,0.2749,0.2844,0.2412,0.2343,0.216,0.2381,0.2077,0.2977,0.2989,0.3044,0.3189,0.2966,0,0,0,0,0]},{"header":{"parameterUnit":"m.s-1","parameterCategory":2,"la1":30.2991,"la2":30.254,"lo1":-89.0895,"lo2":-89.0444,"dy":0.0017,"dx":0.0017,"nx":28,"ny":28,"refTime":"2024-08-13T21:00:00:Z","depth":"2","parameterNumber":3,"parameterNumberName":"V-component_of_CURRENTS"},"data":[0,0,0,0,0,0,0,0,0,0,0,0,0,0,0,0,0,0,0,0,0,0,0,0,0,0,0,0,0,0,0,0,0,0,0,0,0,0,0,0,0,0,0,0,0,0,0,0,0,0,0,0,0,0,0,0,0,0,0.0548,0.0547,0,0.0405,0.0403,0.0401,0.0325,0.0325,0.0325,0.0325,0.0297,0.0297,0.0296,0,0,0,0,0,0,0,0,0,0,0,0,0,0.0417,0.0422,0.0548,0.0547,0.0545,0.0405,0.0403,0.0401,0.0325,0.0325,0.0325,0.0325,0.0298,0.0297,0.0296,0,0,0,0,0,0,0,0,0,0,0,0,0,0.0392,0.0424,0.0549,0.0493,0.0487,0.0406,0.0403,0.04,0.0325,0.0325,0.0325,0.0325,0.0298,0.0297,0.0295,0.0282,0,0,0.0291,0.0291,0,0,0,0,0,0,0,0,0.0394,0.0396,0.0503,0.0497,0.049,0.0386,0.0346,0.0367,0.0324,0.0382,0.0325,0.0325,0.034,0.0335,0.0301,0.028,0.0279,0.0291,0.029,0.029,0.0289,0,0,0,0,0,0,0,0.0396,0.04,0.0488,0.0501,0.0493,0.0359,0.0359,0.0348,0.0361,0.0377,0.0372,0.0362,0.0337,0.0302,0.03,0.0279,0.0291,0.029,0.0289,0.0289,0.0289,0.029,0,0,0,0,0,0,0.044,0.0405,0.0493,0.0484,0.0445,0.0363,0.0362,0.0416,0.0358,0.035,0.0362,0.0359,0.0304,0.0302,0.0299,0.0303,0.029,0.0288,0.0288,0.0288,0.0289,0.029,0,0,0,0,0,0,0.0439,0.0452,0.0498,0.0438,0.0436,0.0369,0.0427,0.0413,0.0367,0.0346,0.0339,0.033,0.0304,0.0301,0.0324,0.0302,0.0288,0.0287,0.0287,0.0289,0.029,0.0298,0,0,0,0,0,0,0.0437,0.0454,0.0472,0.0445,0.0441,0.0478,0.0427,0.041,0.0363,0.0358,0.0317,0.0315,0.0304,0.0326,0.0322,0.0299,0.0286,0.0286,0.0288,0.0289,0.0297,0.03,0.0302,0,0,0,0,0,0.0433,0.0477,0.0476,0.0483,0.0485,0.048,0.0466,0.041,0.0362,0.0364,0.0348,0.0315,0.0332,0.0327,0.0322,0.0298,0.0285,0.0287,0.0289,0.0296,0.0299,0.0302,0,0,0,0,0,0,0.0405,0.0473,0.0471,0.0527,0.0515,0.0469,0.0441,0.0403,0.0379,0.036,0.0338,0.0337,0.0346,0.0332,0.0326,0.0306,0.0297,0.0298,0.0304,0.0307,0.0309,0.0326,0.0284,0,0,0,0,0,0.0419,0.0481,0.0501,0.0532,0.0535,0.048,0.0453,0.0425,0.0407,0.039,0.0372,0.0351,0.0347,0.0339,0.0341,0.033,0.0308,0.0311,0.0313,0.0315,0.0328,0.0292,0.0291,0.0296,0.0296,0.0296,0,0,0.0411,0.0449,0.0481,0.0529,0.0502,0.0511,0.0465,0.0438,0.0427,0.0396,0.0378,0.0367,0.0354,0.0353,0.0351,0.0336,0.0299,0.0317,0.0319,0.0331,0.0294,0.0293,0.0292,0.0298,0.0297,0.0297,0,0,0.0426,0.0469,0.0525,0.0533,0.0524,0.05,0.05,0.047,0.0444,0.0438,0.0412,0.0409,0.0385,0.038,0.037,0.039,0.0325,0.0364,0.0372,0.0336,0.0334,0.0333,0.0286,0.0281,0.035,0.035,0.035,0,0.0404,0.0496,0.0522,0.0562,0.0565,0.0507,0.0536,0.0497,0.0472,0.0467,0.0446,0.0418,0.0402,0.0401,0.04,0.0393,0.0352,0.0355,0.0336,0.0335,0.0333,0.0286,0.0279,0.0351,0.0351,0.0351,0.0351,0,0.0466,0.0521,0.0541,0.0599,0.0603,0.0611,0.0596,0.0576,0.0527,0.0496,0.049,0.0472,0.0462,0.0435,0.0416,0.0392,0.0359,0.0351,0.0323,0.0333,0.0282,0.0276,0.0352,0.0351,0.0351,0.0351,0,0,0.0488,0.0577,0.0585,0.063,0.063,0.0656,0.0634,0.0631,0.0627,0.0572,0.0585,0.0539,0.051,0.0501,0.0466,0.0416,0.0356,0.0365,0.0363,0.0309,0.025,0.0204,0.0192,0.0324,0.0324,0.0323,0.0212,0,0.0524,0.0634,0.0654,0.072,0.0778,0.074,0.0744,0.0721,0.0682,0.068,0.0618,0.0624,0.0537,0.0542,0.047,0.0416,0.0341,0.0386,0.0259,0.0255,0.0205,0.0184,0.0217,0.0119,0.0205,0.0204,0.0203,0,0.0587,0.0664,0.076,0.0839,0.0858,0.0869,0.0889,0.0891,0.0847,0.0819,0.0773,0.0729,0.0672,0.0603,0.0452,0.0475,0.0357,0.0284,0.0278,0.0233,0.0197,0.0128,0.0103,0.0192,0.0193,0.0194,0.0194,0,0.064,0.0739,0.0829,0.0856,0.0921,0.0941,0.0955,0.093,0.0965,0.0922,0.094,0.0832,0.0829,0.0657,0.0485,0.0462,0.0314,0.0276,0.0113,0.0108,0.0115,0.0111,0.0149,0.0149,0.0149,0.0149,0.015,0,0.0698,0.0771,0.0866,0.0922,0.1032,0.1033,0.1115,0.1098,0.1104,0.1168,0.1033,0.1058,0.0839,0.0725,0.0524,0.0303,0.0337,0.0112,0.0077,0.0117,0.0115,0.0172,0.0176,0.0145,0.0146,0.0147,0.0148,0,0.0758,0.0801,0.094,0.1039,0.1071,0.1162,0.1253,0.132,0.128,0.1364,0.1366,0.1245,0.1074,0.0832,0.0586,0.0389,0.0174,0.0079,0.0133,0.0105,-0.0029,-0.0023,-0.0122,-0.0125,-0.0127,-0.0129,-0.0131,0,0.0819,0.0881,0.1059,0.1143,0.119,0.1311,0.1401,0.1419,0.1498,0.1485,0.1552,0.1398,0.1291,0.0892,0.0531,0.016,0.0135,-0.0036,-0.0077,-0.0032,-0.0057,-0.0047,-0.0038,-0.0073,-0.0074,-0.0074,-0.0075,0,0.0932,0.0978,0.1094,0.1279,0.1403,0.1561,0.1676,0.1744,0.1775,0.1803,0.1787,0.1685,0.1298,0.092,0.043,0.0192,0.0021,-0.0066,-0.0016,-0.0008,0.0006,-0.0015,-0.0006,-0.0082,-0.0081,-0.008,-0.008,-0.008,0.1024,0.1126,0.1263,0.1427,0.1566,0.1728,0.1822,0.1932,0.2029,0.2002,0.1945,0.1767,0.1385,0.0705,0.0327,-0.0065,-0.0065,-0.0196,-0.019,-0.0184,-0.0157,-0.0147,-0.026,-0.026,-0.026,-0.0261,-0.0261,0,0.1154,0.123,0.1391,0.1581,0.1711,0.177,0.1951,0.1996,0.2068,0.2083,0.2006,0.1582,0.1179,0.0748,0.0152,-0.0202,-0.0207,-0.0295,-0.0216,-0.0207,-0.02,-0.0171,-0.028,-0.0281,-0.0281,-0.0282,0,0,0.1215,0.1373,0.1443,0.1655,0.1741,0.188,0.1943,0.2011,0.204,0.1968,0.1871,0.1725,0.1249,0.0821,0.0361,0.004,-0.0003,-0.0023,0.0027,0.0183,0.0195,-0.0113,-0.0055,0,0,0,0,0]}],[{"header":{"parameterUnit":"m.s-1","parameterCategory":2,"la1":30.2991,"la2":30.254,"lo1":-89.0895,"lo2":-89.0444,"dy":0.0017,"dx":0.0017,"nx":28,"ny":28,"refTime":"2024-08-13T21:00:00:Z","depth":"4","parameterNumber":2,"parameterNumberName":"U-component_of_CURRENTS"},"data":[0,0,0,0,0,0,0,0,0,0,0,0,0,0,0,0,0,0,0,0,0,0,0,0,0,0,0,0,0,0,0,0,0,0,0,0,0,0,0,0,0,0,0,0,0,0,0,0,0,0,0,0,0,0,0,0,0,0,0.1287,0.1288,0,0.1371,0.1372,0.1373,0.1405,0.1405,0.1405,0.1405,0.1381,0.1381,0.138,0,0,0,0,0,0,0,0,0,0,0,0,0,0.1225,0.1226,0.1287,0.1288,0.1289,0.1371,0.1372,0.1373,0.1405,0.1405,0.1405,0.1404,0.1382,0.1381,0.138,0,0,0,0,0,0,0,0,0,0,0,0,0,0.1274,0.1226,0.1287,0.1316,0.1319,0.1371,0.1372,0.1374,0.1405,0.1405,0.1405,0.1404,0.1382,0.1381,0.138,0.1381,0,0,0.1378,0.1378,0,0,0,0,0,0,0,0,0.1271,0.1276,0.1311,0.1314,0.1318,0.1378,0.1342,0.1371,0.1405,0.1371,0.1404,0.1404,0.1371,0.1371,0.1388,0.1379,0.1378,0.1378,0.1378,0.1377,0.1377,0,0,0,0,0,0,0,0.1267,0.1273,0.1319,0.1312,0.1316,0.1349,0.1355,0.1349,0.1369,0.1374,0.1377,0.1388,0.1372,0.1388,0.1387,0.1378,0.1378,0.1377,0.1377,0.1377,0.1556,0.1561,0,0,0,0,0,0,0.1256,0.1269,0.1317,0.1322,0.1295,0.135,0.1357,0.1358,0.1371,0.1374,0.1388,0.139,0.139,0.1388,0.1386,0.1453,0.1377,0.1377,0.1376,0.1551,0.1558,0.1563,0,0,0,0,0,0,0.1254,0.1259,0.1313,0.1299,0.1308,0.1351,0.1353,0.136,0.1414,0.1383,0.1384,0.1439,0.139,0.1387,0.142,0.1449,0.1376,0.1376,0.1545,0.1553,0.156,0.1542,0,0,0,0,0,0,0.1252,0.1257,0.1282,0.1298,0.1309,0.1354,0.1354,0.1362,0.1419,0.1422,0.1426,0.1422,0.1389,0.1422,0.1419,0.1447,0.1375,0.1539,0.1549,0.1558,0.1536,0.1549,0.1559,0,0,0,0,0,0.1249,0.1274,0.1282,0.129,0.1331,0.1356,0.1365,0.1394,0.1422,0.1443,0.1463,0.1424,0.1484,0.1423,0.142,0.1448,0.1534,0.1546,0.1557,0.1531,0.1546,0.1559,0,0,0,0,0,0,0.1258,0.128,0.1289,0.132,0.1342,0.1361,0.1395,0.1423,0.1461,0.1483,0.1455,0.1453,0.1485,0.1506,0.1441,0.1549,0.1517,0.1529,0.1499,0.1513,0.1524,0.1551,0.1375,0,0,0,0,0,0.1271,0.1301,0.1313,0.1344,0.1353,0.1387,0.1415,0.1441,0.1466,0.1486,0.1494,0.1528,0.153,0.1551,0.1554,0.1607,0.1631,0.1648,0.1659,0.1667,0.17,0.175,0.1765,0.1602,0.1602,0.1601,0,0,0.128,0.1304,0.1318,0.1351,0.1371,0.1397,0.1403,0.1457,0.1501,0.1475,0.1548,0.1542,0.1552,0.159,0.1616,0.1612,0.1734,0.1682,0.1687,0.1717,0.1763,0.1778,0.1791,0.161,0.1608,0.1607,0,0,0.1302,0.1333,0.1355,0.1378,0.1426,0.1447,0.1471,0.1518,0.1557,0.1622,0.1609,0.1638,0.168,0.1677,0.1681,0.178,0.1769,0.181,0.1895,0.1941,0.1952,0.1963,0.2012,0.2027,0.184,0.184,0.184,0,0.1319,0.133,0.1367,0.1393,0.1419,0.1471,0.1496,0.1547,0.1613,0.1654,0.1656,0.1739,0.1718,0.1758,0.1794,0.1792,0.1835,0.181,0.1945,0.1957,0.1967,0.2016,0.2032,0.184,0.184,0.184,0.184,0,0.1343,0.1357,0.1372,0.1417,0.1467,0.1494,0.1558,0.1634,0.1699,0.1743,0.1821,0.1818,0.1879,0.1875,0.1853,0.1938,0.1947,0.1915,0.188,0.1981,0.2028,0.2046,0.1841,0.1841,0.1841,0.1841,0,0,0.1352,0.1373,0.1385,0.1395,0.1477,0.1518,0.1615,0.1692,0.1779,0.1853,0.1939,0.1956,0.1992,0.2009,0.1995,0.2041,0.2119,0.2035,0.2037,0.2034,0.2248,0.2056,0.2057,0.2108,0.2111,0.2113,0.2245,0,0.1344,0.136,0.1403,0.1449,0.1449,0.1547,0.1637,0.1749,0.1839,0.1944,0.1985,0.2055,0.2034,0.2072,0.2115,0.2114,0.217,0.2089,0.22,0.2204,0.1976,0.2071,0.2124,0.2258,0.2262,0.2265,0.2267,0,0.1343,0.1354,0.1364,0.144,0.1462,0.153,0.1698,0.1793,0.1952,0.2031,0.2135,0.2175,0.2265,0.2222,0.2325,0.2285,0.2293,0.2287,0.2291,0.2135,0.2044,0.2149,0.2298,0.2296,0.2294,0.2291,0.229,0,0.1295,0.1336,0.1337,0.1358,0.1461,0.1535,0.1638,0.1819,0.1918,0.2103,0.2195,0.2305,0.2375,0.2424,0.2435,0.2409,0.252,0.247,0.2313,0.23,0.2432,0.242,0.255,0.255,0.255,0.2549,0.2549,0,0.123,0.1238,0.1317,0.1315,0.1406,0.1522,0.1661,0.1797,0.1975,0.2094,0.2245,0.2333,0.2435,0.25,0.2497,0.2462,0.2585,0.2354,0.2325,0.2427,0.2413,0.2443,0.2429,0.2554,0.2553,0.2552,0.2551,0,0.1126,0.1157,0.1187,0.1307,0.1361,0.1451,0.1656,0.1754,0.1961,0.2121,0.2191,0.2386,0.2492,0.2551,0.2617,0.2521,0.2506,0.2455,0.2589,0.2561,0.2251,0.2236,0.2324,0.2318,0.2314,0.231,0.2307,0,0.1029,0.1032,0.1178,0.1229,0.1273,0.1414,0.1511,0.1726,0.1824,0.2125,0.2172,0.2359,0.2463,0.2447,0.2492,0.2496,0.2439,0.2422,0.2318,0.2267,0.2232,0.2224,0.2215,0.2299,0.2298,0.2297,0.2295,0,0.0886,0.0977,0.1022,0.1126,0.1221,0.1329,0.1475,0.154,0.1799,0.1978,0.2141,0.2215,0.2315,0.2356,0.2365,0.2346,0.2428,0.2372,0.2381,0.2284,0.2238,0.2205,0.2202,0.2279,0.2281,0.2283,0.2284,0,0.0808,0.084,0.0937,0.1035,0.1139,0.1223,0.1324,0.1455,0.1591,0.1917,0.1947,0.2157,0.2312,0.2277,0.228,0.2254,0.221,0.2112,0.2134,0.2152,0.2019,0.1931,0.1878,0,0,0,0,0,0.0724,0.0774,0.0839,0.0946,0.1039,0.1122,0.1286,0.1393,0.1624,0.1696,0.1834,0.1933,0.2004,0.208,0.2015,0.214,0.2175,0.2046,0.2065,0.2188,0.2207,0.2056,0,0,0,0,0,0,0.0685,0.0735,0.0798,0.0843,0.0908,0.1005,0.1126,0.1286,0.1341,0.1583,0.1636,0.1793,0.1878,0.2037,0.198,0.1992,0.1953,0.2148,0.2142,0.2178,0.2195,0.221,0.2061,0,0,0,0,0]},{"header":{"parameterUnit":"m.s-1","parameterCategory":2,"la1":30.2991,"la2":30.254,"lo1":-89.0895,"lo2":-89.0444,"dy":0.0017,"dx":0.0017,"nx":28,"ny":28,"refTime":"2024-08-13T21:00:00:Z","depth":"4","parameterNumber":3,"parameterNumberName":"V-component_of_CURRENTS"},"data":[0,0,0,0,0,0,0,0,0,0,0,0,0,0,0,0,0,0,0,0,0,0,0,0,0,0,0,0,0,0,0,0,0,0,0,0,0,0,0,0,0,0,0,0,0,0,0,0,0,0,0,0,0,0,0,0,0,0,0.0451,0.0452,0,0.0451,0.045,0.045,0.0442,0.0442,0.0442,0.0443,0.0382,0.0381,0.0379,0,0,0,0,0,0,0,0,0,0,0,0,0,0.034,0.0343,0.0451,0.0452,0.0452,0.0451,0.045,0.045,0.0442,0.0442,0.0442,0.0443,0.0383,0.0381,0.0379,0,0,0,0,0,0,0,0,0,0,0,0,0,0.0365,0.0343,0.0451,0.0451,0.0451,0.0451,0.045,0.045,0.0442,0.0442,0.0443,0.0443,0.0384,0.0381,0.0378,0.0357,0,0,0.037,0.0369,0,0,0,0,0,0,0,0,0.0364,0.0369,0.0451,0.0451,0.0451,0.045,0.0389,0.0417,0.0442,0.0441,0.0443,0.0443,0.0402,0.0398,0.0392,0.0354,0.0351,0.037,0.0368,0.0367,0.0367,0,0,0,0,0,0,0,0.0362,0.0368,0.0447,0.0451,0.0452,0.0415,0.0419,0.0394,0.0416,0.0441,0.0442,0.0448,0.0401,0.0395,0.0391,0.035,0.037,0.0368,0.0366,0.0365,0.0305,0.0305,0,0,0,0,0,0,0.0377,0.0368,0.0447,0.0447,0.0412,0.0418,0.0422,0.0447,0.0417,0.0415,0.0448,0.0448,0.0399,0.0394,0.0388,0.0386,0.0367,0.0365,0.0363,0.0305,0.0305,0.0305,0,0,0,0,0,0,0.0375,0.0384,0.0447,0.0409,0.0415,0.0421,0.0447,0.0447,0.0454,0.0424,0.0419,0.0458,0.0399,0.0392,0.0371,0.0382,0.0364,0.0361,0.0305,0.0305,0.0305,0.0364,0,0,0,0,0,0,0.0372,0.0384,0.0399,0.0411,0.0418,0.0457,0.0448,0.0447,0.0459,0.0459,0.0431,0.0425,0.0399,0.0375,0.0368,0.0378,0.0359,0.0305,0.0305,0.0305,0.0362,0.0366,0.0369,0,0,0,0,0,0.0368,0.0388,0.04,0.0409,0.0442,0.0458,0.0458,0.0458,0.046,0.0464,0.0441,0.0426,0.037,0.0372,0.0365,0.0374,0.0305,0.0305,0.0305,0.036,0.0365,0.0369,0,0,0,0,0,0,0.0346,0.039,0.0403,0.0437,0.0453,0.0458,0.0466,0.0467,0.0454,0.0456,0.0423,0.0415,0.04,0.0376,0.038,0.0356,0.0336,0.0334,0.0381,0.0385,0.0389,0.0384,0.0357,0,0,0,0,0,0.0351,0.038,0.0412,0.0437,0.0453,0.0463,0.0468,0.0474,0.0468,0.0464,0.0441,0.0415,0.0391,0.0381,0.0353,0.034,0.0284,0.0341,0.0344,0.0348,0.0338,0.0263,0.0259,0.0305,0.0305,0.0305,0,0,0.0354,0.0377,0.0397,0.0434,0.0449,0.0471,0.0466,0.0488,0.0497,0.0458,0.0453,0.0426,0.0389,0.0374,0.0366,0.0358,0.0305,0.0348,0.0351,0.0339,0.0262,0.0258,0.0254,0.0305,0.0305,0.0305,0,0,0.0368,0.0397,0.0428,0.0444,0.0475,0.0481,0.0494,0.0509,0.0509,0.0504,0.0476,0.0449,0.0422,0.039,0.0373,0.0377,0.0325,0.0381,0.0399,0.0328,0.0323,0.0318,0.024,0.0227,0.0386,0.0386,0.0386,0,0.0366,0.0416,0.0435,0.0462,0.0483,0.0492,0.0526,0.0522,0.052,0.0516,0.0512,0.0451,0.0425,0.0392,0.0398,0.0385,0.0335,0.039,0.0332,0.0326,0.032,0.024,0.0226,0.0389,0.0389,0.0389,0.0388,0,0.0406,0.0441,0.046,0.0504,0.0521,0.0551,0.0564,0.0568,0.0571,0.0558,0.0531,0.0484,0.0447,0.044,0.0424,0.0378,0.0352,0.0344,0.0323,0.0319,0.0235,0.0219,0.0393,0.0392,0.0391,0.0391,0,0,0.0426,0.048,0.0488,0.0524,0.0551,0.0579,0.0589,0.0604,0.061,0.0582,0.0568,0.0523,0.0493,0.0469,0.0438,0.038,0.03,0.0355,0.0349,0.0279,0.0133,0.0137,0.0119,0.0287,0.0285,0.0283,0.0091,0,0.0459,0.0517,0.0533,0.0593,0.0636,0.0642,0.0653,0.0657,0.0643,0.062,0.0561,0.0536,0.0507,0.0496,0.0429,0.0332,0.0261,0.0352,0.0144,0.0137,0.0143,0.0102,0.0276,0.0079,0.0075,0.0072,0.007,0,0.0502,0.054,0.0606,0.0662,0.0683,0.0714,0.0745,0.0758,0.0714,0.0693,0.0637,0.0583,0.0494,0.0475,0.0283,0.0346,0.0243,0.0161,0.0151,0.0121,0.0112,0.0081,0.004,0.0043,0.0045,0.0047,0.0049,0,0.0531,0.0594,0.0654,0.0674,0.073,0.0766,0.08,0.0788,0.0806,0.0742,0.0722,0.0598,0.0542,0.0393,0.0223,0.0253,-0.0004,0.0014,-0.0091,-0.0092,-0.0063,-0.0056,-0.0135,-0.0135,-0.0135,-0.0134,-0.0134,0,0.0563,0.0618,0.0682,0.0723,0.0806,0.0828,0.0897,0.0892,0.0878,0.088,0.0776,0.0719,0.0521,0.0357,0.0206,-0.0005,-0.0028,-0.0111,-0.0146,-0.0034,-0.0021,-0.0075,-0.0066,-0.0141,-0.014,-0.0138,-0.0137,0,0.0594,0.0628,0.0716,0.0795,0.0831,0.0903,0.0993,0.1016,0.0996,0.0988,0.097,0.0797,0.0583,0.0363,0.0094,-0.0019,-0.0223,-0.0293,-0.0182,-0.0205,-0.0259,-0.0244,-0.0422,-0.0423,-0.0425,-0.0426,-0.0427,0,0.0613,0.0664,0.0782,0.0839,0.0891,0.0995,0.1049,0.108,0.1092,0.1029,0.1002,0.081,0.0672,0.0274,0.005,-0.027,-0.0294,-0.0406,-0.0309,-0.0274,-0.0291,-0.0274,-0.0258,-0.0429,-0.0429,-0.043,-0.043,0,0.0662,0.0711,0.0773,0.0883,0.0971,0.1067,0.1145,0.1169,0.1175,0.1157,0.1019,0.0824,0.0569,0.0274,0.0011,-0.0206,-0.0335,-0.042,-0.0417,-0.0327,-0.0285,-0.0296,-0.0279,-0.0435,-0.0434,-0.0433,-0.0433,0,0.0694,0.0742,0.0814,0.0917,0.1013,0.109,0.1152,0.1156,0.1178,0.1114,0.1059,0.0802,0.065,0.0303,0.006,-0.0159,-0.0181,-0.0222,-0.023,-0.0227,-0.0098,-0.0011,-0.0128,0,0,0,0,0,0.0705,0.0751,0.0837,0.0932,0.1019,0.1091,0.117,0.1208,0.1226,0.1142,0.1112,0.088,0.0527,0.035,0.0135,0.0044,-0.0224,-0.0214,-0.0275,-0.046,-0.0455,-0.0334,0,0,0,0,0,0,0.0706,0.0779,0.0823,0.0914,0.0987,0.1085,0.1154,0.1177,0.1128,0.1113,0.0914,0.0843,0.0481,0.0651,0.0134,0.0066,0.0003,-0.0378,-0.0382,-0.0463,-0.0458,-0.0454,-0.0328,0,0,0,0,0]}]]